Home > Weather > Dushanbe > Past weeks

Flag for Tajikistan Weather for the Past 2 Weeks in Dushanbe, Tajikistan

Now
32 °F

Overcast.


Feels Like: 29 °F
Forecast: 24 / 47 °F
Wind: 3 mph from Northeast

Location: Dushanbe Airport

Current Time: Feb 14, 2016 at 7:56:39 AM

Latest Report: Feb 14, 2016 at 7:00 AM


Visibility: 5 mi

Pressure: 30.30 "Hg (27.30 "Hg at 832m altitude)

Humidity: 80%

Dew point: 27 °F

Location of DushanbeLocation

Historic Weather in Dushanbe — Graph

°F

Dushanbe Temperature Yesterday

Maximum temperature yesterday: 37 °F (at 2:30 PM)
Minimum temperature yesterday: 28 °F (at 12:00 AM)
Average temperature yesterday: 31 °F

High & Low Weather Summary for the Past Weeks

 TemperatureHumidityPressure
High68 °F (Feb 7, 1:30 PM)100% (Jan 31, 8:00 AM)30.48 "Hg (Jan 31, 8:00 AM)
Low18 °F (Feb 12, 6:00 AM)16% (Feb 7, 1:30 PM)29.98 "Hg (Feb 8, 2:30 PM)
Average38 °F67%30.25 "Hg
* Reported Jan 30 6:00 AM — Feb 14 6:30 AM, Dushanbe, Weather by CustomWeather, © 2016

Note: Actual official high and low records may vary slightly from our data, if they occured in-between our weather recording intervals... More about our weather records

Advertising

Dushanbe Weather History for the Previous 24 Hours

 ConditionsComfort  
Time TempWeatherWind HumidityBarometerVisibility
6:30 AM
Sun, Feb 14
32 °FMostly cloudy.1 mph80%30.30 "Hg5 mi
6:00 AM32 °FMostly cloudy.No wind80%30.30 "Hg5 mi
5:30 AM32 °FOvercast.3 mph80%30.30 "Hg4 mi
5:00 AM32 °FMostly cloudy.3 mph80%30.30 "Hg4 mi
4:30 AM32 °FMostly cloudy.3 mph80%30.30 "Hg4 mi
4:00 AM32 °FOvercast.3 mph80%30.30 "Hg4 mi
3:30 AM32 °FOvercast.6 mph80%30.30 "Hg4 mi
2:30 AM32 °FOvercast.6 mph80%30.30 "Hg4 mi
2:00 AM32 °FOvercast.3 mph80%30.30 "Hg4 mi
1:30 AM32 °FOvercast.1 mph80%30.30 "Hg4 mi
1:00 AM32 °FOvercast.1 mph80%30.30 "Hg4 mi
12:30 AM32 °FOvercast.1 mph80%30.30 "Hg4 mi
12:00 AM32 °FOvercast.3 mph80%30.30 "Hg4 mi
11:30 PM
Sat, Feb 13
32 °FOvercast.6 mph80%30.30 "Hg4 mi
11:00 PM32 °FOvercast.6 mph80%30.30 "Hg4 mi
10:30 PM32 °FOvercast.8 mph80%30.30 "Hg4 mi
10:00 PM32 °FMostly cloudy.10 mph80%30.30 "Hg4 mi
9:30 PM32 °FMostly cloudy.6 mph80%30.30 "Hg4 mi
9:00 PM32 °FOvercast.8 mph75%30.30 "Hg4 mi
8:30 PM32 °FOvercast.8 mph75%30.30 "Hg4 mi
8:00 PM32 °FIce fog.10 mph80%30.27 "Hg3 mi
7:30 PM32 °FOvercast.8 mph80%30.27 "Hg4 mi
7:00 PM32 °FPartly cloudy.10 mph80%30.27 "Hg4 mi
6:30 PM32 °FPassing clouds.10 mph80%30.24 "Hg4 mi
6:00 PM32 °FIce fog.10 mph80%30.24 "Hg3 mi
5:30 PM34 °FFog.10 mph75%30.24 "Hg3 mi
5:00 PM36 °FFog.10 mph70%30.21 "Hg2 mi
4:30 PM37 °FPartly sunny.6 mph60%30.21 "Hg2 mi
4:00 PM37 °FPartly sunny.6 mph65%30.21 "Hg2 mi
3:30 PM37 °FPartly sunny.3 mph60%30.21 "Hg2 mi
3:00 PM37 °FPartly sunny.3 mph60%30.21 "Hg2 mi
2:30 PM37 °FMostly cloudy.6 mph60%30.21 "Hg2 mi
2:00 PM36 °FPartly sunny.3 mph65%30.21 "Hg2 mi
1:30 PM36 °FOvercast.3 mph65%30.21 "Hg2 mi
1:00 PM34 °FFog.3 mph70%30.24 "Hg2 mi
12:30 PM34 °FFog.3 mph65%30.24 "Hg2 mi
12:00 PM34 °FFog.3 mph65%30.27 "Hg2 mi
11:30 AM32 °FIce fog.3 mph69%30.27 "Hg2 mi
11:00 AM30 °FIce fog.3 mph75%30.27 "Hg2 mi
10:30 AM30 °FIce fog.1 mph75%30.27 "Hg2 mi
10:00 AM30 °FIce fog.1 mph75%30.27 "Hg2 mi
9:30 AM30 °FIce fog.1 mph75%30.27 "Hg2 mi
9:00 AM28 °FIce fog.1 mph80%30.27 "Hg2 mi
8:30 AM28 °FIce fog.1 mph80%30.27 "Hg2 mi
8:00 AM28 °FIce fog.1 mph80%30.27 "Hg2 mi
7:30 AM28 °FIce fog.No wind80%30.27 "Hg3 mi
7:00 AM28 °FOvercast.3 mph80%30.27 "Hg4 mi
Weather by CustomWeather, © 2016

See weather overviewHow to use our weather pages